Weather History for KPSK - December, 2011

Change the Weather History Date:

Friday, December 30, 2011

  Actual Average (KBCB) Record (KBCB)
Temperature  
Mean Temperature 44 °F 32 °F  
Max Temperature 59 °F 41 °F 68 °F (1984)
Min Temperature 30 °F 22 °F -2 °F (1983)
Degree Days  
Heating Degree Days 20 33  
Month to date heating degree days 932  
Since 1 July heating degree days 2112  
Cooling Degree Days 0 0  
Month to date cooling degree days 0  
Year to date cooling degree days 573  
Moisture  
Dew Point 33 °F    
Average Humidity 63    
Maximum Humidity 86    
Minimum Humidity 29    
Precipitation  
Precipitation 0.00 in 0.09 in 0.77 in (1962)
Month to date precipitation 2.86  
Year to date precipitation 40.80  
Snow  
Snow 0.00 in - - ()
Month to date snowfall  
Since 1 July snowfall  
Snow Depth -    
Sea Level Pressure  
Sea Level Pressure 29.95 in    
Wind  
Wind Speed 5 mph (SSW)    
Max Wind Speed 15 mph    
Max Gust Speed 18 mph    
Visibility 10 miles    
Events      
T = Trace of Precipitation, MM = Missing Value Source: NWS Daily Summary

Daily Weather History Graph

Daily Weather History Graph

Search for Another Location

Airport or City:

Trip Planner

Search our weather history database for the weather conditions in past years. The results will help you decide how hot, cold, wet, or windy it might be!

Date:

Astronomy

Dec. 30, 2011 Rise Set
Actual Time 7:35 AM EST 5:14 PM EST
Civil Twilight 7:06 AM EST 5:43 PM EST
Nautical Twilight 6:34 AM EST 6:16 PM EST
Astronomical Twilight 6:02 AM EST 6:47 PM EST
Moon 11:03 AM EST (12/30) 11:38 PM EST (12/30)
Length of Visible Light 10h 36m
Length of Day
9h 38m
Waxing Crescent, 35% of the Moon is Illuminated
Dec 30
Waxing Crescent
Jan 1
First Quarter
Jan 9
Full
Jan 16
Last Quarter
Jan 23
New

Hourly Weather History & Observations

Time (EST) Temp. Windchill Dew Point Humidity Pressure Visibility Wind Dir Wind Speed Gust Speed Precip Events Conditions
12:15 AM 37.4 °F 30.3 °F 26.6 °F 65% 29.97 in 10.0 mi SW 10.4 mph - N/A   Clear
12:35 AM 39.2 °F 33.6 °F 26.6 °F 61% 29.98 in 10.0 mi WSW 8.1 mph - N/A   Clear
12:55 AM 37.4 °F 32.8 °F 26.6 °F 65% 29.98 in 10.0 mi WSW 5.8 mph - N/A   Clear
1:15 AM 39.2 °F 33.6 °F 26.6 °F 61% 29.98 in 10.0 mi WSW 8.1 mph - N/A   Clear
1:35 AM 39.2 °F 35.9 °F 26.6 °F 61% 29.99 in 10.0 mi WSW 4.6 mph - N/A   Clear
1:55 AM 32.0 °F - 24.8 °F 75% 30.00 in 10.0 mi Calm Calm - N/A   Clear
2:15 AM 35.6 °F - 24.8 °F 65% 30.01 in 10.0 mi Calm Calm - N/A   Clear
2:35 AM 32.0 °F - 26.6 °F 80% 30.01 in 10.0 mi Calm Calm - N/A   Clear
2:55 AM 30.2 °F 26.7 °F 24.8 °F 80% 30.01 in 10.0 mi North 3.5 mph - N/A   Clear
3:15 AM 30.2 °F - 26.6 °F 86% 30.01 in 10.0 mi Calm Calm - N/A   Clear
3:55 AM 35.6 °F - 26.6 °F 70% 30.01 in 10.0 mi Calm Calm - N/A   Clear
4:15 AM 35.6 °F 32.8 °F 28.4 °F 75% 30.00 in 10.0 mi SSE 3.5 mph - N/A   Clear
4:55 AM 35.6 °F - 26.6 °F 70% 30.01 in 10.0 mi Calm Calm - N/A   Clear
5:15 AM 35.6 °F - 26.6 °F 70% 30.01 in 10.0 mi Calm Calm - N/A   Clear
5:35 AM 33.8 °F 30.8 °F 28.4 °F 81% 30.00 in 10.0 mi SE 3.5 mph - N/A   Clear
5:55 AM 35.6 °F 32.8 °F 28.4 °F 75% 30.01 in 10.0 mi South 3.5 mph - N/A   Clear
6:35 AM 37.4 °F - 28.4 °F 70% 30.01 in 10.0 mi Calm Calm - N/A   Scattered Clouds
6:55 AM 37.4 °F - 28.4 °F 70% 30.03 in 10.0 mi Calm Calm - N/A   Scattered Clouds
7:15 AM 37.4 °F - 30.2 °F 75% 30.03 in 10.0 mi Calm Calm - N/A   Clear
8:35 AM 39.2 °F - 30.2 °F 70% 30.04 in 10.0 mi Calm Calm - N/A   Clear
8:55 AM 39.2 °F - 32.0 °F 75% 30.04 in 10.0 mi Calm Calm - N/A   Clear
9:15 AM 41.0 °F - 33.8 °F 76% 30.05 in 10.0 mi Calm Calm - N/A   Clear
9:35 AM 41.0 °F - 33.8 °F 76% 30.05 in 10.0 mi Calm Calm - N/A   Scattered Clouds
10:15 AM 48.2 °F - 33.8 °F 58% 30.04 in 10.0 mi SSW 4.6 mph - N/A   Clear
10:35 AM 50.0 °F - 33.8 °F 54% 30.02 in 10.0 mi Calm Calm - N/A   Clear
10:55 AM 51.8 °F - 33.8 °F 50% 30.01 in 10.0 mi West 4.6 mph - N/A   Clear
11:15 AM 51.8 °F - 35.6 °F 54% 30.00 in 10.0 mi Calm Calm - N/A   Clear
12:15 PM 55.4 °F - 30.2 °F 38% 29.94 in 10.0 mi SSE 4.6 mph - N/A   Clear
12:35 PM 55.4 °F - 28.4 °F 36% 29.92 in 10.0 mi South 6.9 mph - N/A   Clear
12:55 PM 57.2 °F - 30.2 °F 36% 29.91 in 10.0 mi Calm Calm - N/A   Clear
2:15 PM 59.0 °F - 26.6 °F 29% 29.88 in 10.0 mi SSW 10.4 mph - N/A   Clear
2:35 PM 57.2 °F - 26.6 °F 31% 29.88 in 10.0 mi South 11.5 mph 17.3 mph N/A   Clear
2:55 PM 57.2 °F - 24.8 °F 29% 29.88 in 10.0 mi South 15.0 mph 18.4 mph N/A   Clear
3:15 PM 55.4 °F - 26.6 °F 33% 29.88 in 10.0 mi South 15.0 mph - N/A   Clear
3:35 PM 53.6 °F - 28.4 °F 38% 29.88 in 10.0 mi South 11.5 mph - N/A   Clear
3:55 PM 53.6 °F - 28.4 °F 38% 29.88 in 10.0 mi South 9.2 mph - N/A   Clear
4:15 PM 51.8 °F - 30.2 °F 44% 29.88 in 10.0 mi South 9.2 mph - N/A   Clear
4:35 PM 50.0 °F - 30.2 °F 47% 29.88 in 10.0 mi South 4.6 mph - N/A   Clear
4:55 PM 51.8 °F - 32.0 °F 47% 29.87 in 10.0 mi SSW 6.9 mph - N/A   Clear
5:15 PM 50.0 °F - 33.8 °F 54% 29.87 in 10.0 mi South 8.1 mph - N/A   Clear
5:35 PM 51.8 °F - 35.6 °F 54% 29.86 in 10.0 mi South 10.4 mph - N/A   Clear
5:55 PM 50.0 °F - 37.4 °F 62% 29.87 in 10.0 mi South 6.9 mph - N/A   Clear
6:15 PM 51.8 °F - 39.2 °F 62% 29.87 in 10.0 mi South 8.1 mph - N/A   Clear
6:35 PM 50.0 °F - 39.2 °F 66% 29.88 in 10.0 mi South 4.6 mph - N/A   Clear
6:55 PM 48.2 °F - 39.2 °F 71% 29.88 in 10.0 mi Calm Calm - N/A   Clear
7:15 PM 48.2 °F - 42.8 °F 82% 29.89 in 10.0 mi SSW 5.8 mph - N/A   Scattered Clouds
7:35 PM 50.0 °F - 42.8 °F 76% 29.90 in 10.0 mi WSW 5.8 mph - N/A   Scattered Clouds
7:55 PM 50.0 °F - 44.6 °F 82% 29.89 in 10.0 mi SSW 8.1 mph - N/A   Clear
8:15 PM 51.8 °F - 44.6 °F 76% 29.90 in 10.0 mi SSW 5.8 mph - N/A   Clear
8:35 PM 51.8 °F - 44.6 °F 76% 29.89 in 10.0 mi SSW 10.4 mph - N/A   Clear
8:55 PM 51.8 °F - 44.6 °F 76% 29.90 in 10.0 mi SSW 11.5 mph - N/A   Mostly Cloudy
9:15 PM 51.8 °F - 44.6 °F 76% 29.90 in 10.0 mi SSW 11.5 mph 17.3 mph N/A   Overcast
9:35 PM 51.8 °F - 44.6 °F 76% 29.89 in 10.0 mi South 9.2 mph - N/A   Overcast
9:55 PM 50.0 °F - 44.6 °F 82% 29.90 in 10.0 mi SSW 9.2 mph - N/A   Overcast
10:15 PM 50.0 °F - 44.6 °F 82% 29.90 in 10.0 mi SSW 10.4 mph - N/A   Overcast
10:35 PM 50.0 °F - 44.6 °F 82% 29.89 in 10.0 mi SSW 9.2 mph - N/A   Overcast
10:55 PM 48.2 °F - 44.6 °F 87% 29.89 in 10.0 mi WSW 4.6 mph - N/A   Mostly Cloudy
11:15 PM 48.2 °F - 44.6 °F 87% 29.89 in 10.0 mi SSW 5.8 mph - N/A   Mostly Cloudy
11:55 PM 48.2 °F - 44.6 °F 87% 29.88 in 10.0 mi SW 4.6 mph - N/A   Overcast